GSAT0222 (PRN E33)

Last updated on Nov. 21, 2019, 4:16 a.m. UTC

1 43565U 18060B   19323.80767978 -.00000067  00000-0  00000+0 0  9991
2 43565  56.6731  46.8218 0004672 261.3329  98.6414  1.70476234  8270
UTC
Height (km)
Latitude
Longitude
Inclination
Orbital Period
UTC large
Height (km)
Speed (km/s)
/
Latitude / Longitude
Inclination (degrees)
Orbital Period (minutes)
Azimuth
Elevation
Range (km)
Doppler Factor
iOS Compass Heading
iOS Angle

Next 30 passes for location: Hong Kong

Rise time Rise Azimuth (degrees) Set time Set Azimuth (degrees) Duration Max altitude (degrees)

No matching passes for this satellites